Weather History for Springfield, VT

Change the Weather History Date:

Wednesday, February 15, 2012

  Actual Average Record
Temperature  
Mean Temperature 38 °F 23 °F  
Max Temperature 45 °F 33 °F 51 °F (2006)
Min Temperature 30 °F 13 °F -16 °F (2003)
Degree Days  
Heating Degree Days 27 42  
Month to date heating degree days 549 653  
Since 1 July heating degree days 4054 4925  
Moisture  
Dew Point 24 °F    
Average Humidity 58    
Maximum Humidity 78    
Minimum Humidity 37    
Precipitation  
Precipitation 0.00 in 0.10 in 0.29 in (2005)
Month to date precipitation 0.02 1.47  
Year to date precipitation 3.13 4.39  
Sea Level Pressure  
Sea Level Pressure 30.18 in    
Wind  
Wind Speed 1 mph (West)    
Max Wind Speed 12 mph    
Max Gust Speed 15 mph    
Visibility 10 miles    
Events      
T = Trace of Precipitation, MM = Missing Value Source: NWS Daily Summary

Daily Weather History Graph

Daily Weather History Graph

Search for Another Location

Airport:

Trip Planner

Search our weather history database for the weather conditions in past years. The results will help you decide how hot, cold, wet, or windy it might be!

Date:

Astronomy

Feb. 15, 2012 Rise Set
Actual Time 6:48 AM EST 5:20 PM EST
Civil Twilight 6:19 AM EST 5:49 PM EST
Nautical Twilight 5:46 AM EST 6:22 PM EST
Astronomical Twilight 5:13 AM EST 6:56 PM EST
Moon 1:44 AM EST (2/15) 11:07 AM EST (2/15)
Length of Visible Light 11h 29m
Length of Day
10h 31m
Last Quarter, 39% of the Moon is Illuminated
Feb 15
Last Quarter
Feb 21
New
Feb 29
First Quarter
Mar 8
Full
Mar 14
Last Quarter

Hourly Weather History & Observations

Time (EST) Temp. Windchill Dew Point Humidity Pressure Visibility Wind Dir Wind Speed Gust Speed Precip Events Conditions
12:54 AM 30.9 °F - 23.0 °F 72% 30.10 in 10.0 mi Calm Calm - N/A   Overcast
1:54 AM 30.9 °F - 21.9 °F 69% 30.10 in 10.0 mi Calm Calm - N/A   Overcast
2:54 AM 30.9 °F - 23.0 °F 72% 30.10 in 10.0 mi Calm Calm - N/A   Overcast
3:54 AM 30.9 °F - 23.0 °F 72% 30.10 in 10.0 mi Calm Calm - N/A   Overcast
4:54 AM 30.0 °F - 23.0 °F 75% 30.12 in 10.0 mi Calm Calm - N/A   Overcast
5:54 AM 30.0 °F - 23.0 °F 75% 30.12 in 10.0 mi Calm Calm - N/A   Overcast
7:54 AM 30.9 °F - 24.1 °F 76% 30.16 in 10.0 mi Calm Calm - N/A   Overcast
8:54 AM 33.1 °F - 24.1 °F 70% 30.17 in 10.0 mi Calm Calm - N/A   Overcast
9:54 AM 37.0 °F - 21.9 °F 54% 30.17 in 10.0 mi Calm Calm - N/A   Overcast
10:54 AM 39.9 °F - 19.0 °F 43% 30.17 in 10.0 mi Calm Calm - N/A   Overcast
11:54 AM 42.1 °F - 19.0 °F 40% 30.17 in 10.0 mi Calm Calm - N/A   Overcast
1:54 PM 44.1 °F - 19.9 °F 38% 30.15 in 10.0 mi Calm Calm - N/A   Overcast
2:54 PM 44.1 °F - 21.0 °F 40% 30.16 in 10.0 mi Calm Calm - N/A   Overcast
3:54 PM 44.1 °F 42.5 °F 25.0 °F 47% 30.17 in 10.0 mi West 3.5 mph - N/A   Overcast
4:54 PM 42.1 °F 38.4 °F 26.1 °F 53% 30.18 in 10.0 mi WNW 5.8 mph - N/A   Overcast
5:54 PM 39.0 °F - 26.1 °F 60% 30.20 in 10.0 mi Calm Calm - N/A   Overcast
6:54 PM 36.0 °F - 26.1 °F 67% 30.22 in 10.0 mi Calm Calm - N/A   Overcast
7:54 PM 36.0 °F - 26.1 °F 67% 30.24 in 10.0 mi Calm Calm - N/A   Overcast
8:27 PM 35.6 °F 31.7 °F 28.4 °F 75% 30.22 in 10.0 mi West 4.6 mph - N/A   Overcast
8:47 PM 37.4 °F 33.8 °F 28.4 °F 70% 30.23 in 10.0 mi West 4.6 mph - N/A   Overcast
8:54 PM 37.9 °F 35.5 °F 28.9 °F 70% 30.25 in 10.0 mi West 3.5 mph - N/A   Overcast
9:54 PM 37.0 °F - 28.0 °F 70% 30.25 in 10.0 mi Calm Calm - N/A   Overcast
10:54 PM 39.0 °F 32.3 °F 26.1 °F 60% 30.25 in 10.0 mi West 10.4 mph - N/A   Overcast
11:54 PM 39.0 °F - 25.0 °F 57% 30.26 in 10.0 mi Calm Calm - N/A   Overcast